Content
SEND FEEDBACK

Daily
Averages
Monthly
Summary
France

LILLE, FRANCE


Home > Europe > France
Elevation: 171 feet     Latitude: 50 34N     Longitude: 003 06E

WEATHER
 
SELECT A DAY
Number of Records: 278,625;   Date Range: 7/1/96 - 11/23/14
 
SHARE

PRINT THIS DATA

[ ← Previous Day ]
WEATHER ALMANAC - APRIL 29, 2013
[ Next Day → ]
[ °C ]   °F
Weather ElementAverageHighLow
Temperature48.3 °F59 °F (4:00 pm)37 °F (2:00 am)
Dewpoint30.7 °F39.2 °F (12:00 pm)26.6 °F (5:00 am)
Humidity51.8 %75 % (2:30 am)22 % (8:00 pm)
Barometer30.04 in30.15 in (10:00 pm)29.95 in (7:30 am)
Wind Speed10.8 mph17.3 mph (12:30 pm)
Weather ElementAverage
Visibility9.2 mi
Wind DirectionWSW (246.6 °)

Weather ElementTotal
Precipitation---
Heating Degree Days17 (Base 65)
Averaged from 47 records on April 29, 2013
WEATHER CONDITIONS BREAKOUT
WIND DIRECTION BREAKOUT
WEATHER BY HOUR - APRIL 29, 2013
[ °C ]   °F
Local TimeTemperatureDewpointHumidityBarometerVisibilityWind DirectionWind SpeedGust SpeedPrecipitationEventsConditions
12:30 AM41.0 °F28.4 °F61 %30.01 inWSW (240°)8.1 mphClear
1:00 AM41.0 °F30.2 °F65 %30.01 inWSW (240°)4.6 mphClear
1:30 AM39.2 °F30.2 °F70 %30.01 inSW (230°)4.6 mphClear
2:00 AM37.0 °F29.0 °F62 %30.02 in22.0 miSouth (180°)3.5 mph
2:00 AM37.4 °F28.4 °F70 %30.01 inVariable3.5 mphClear
2:30 AM37.4 °F30.2 °F75 %30.01 in6.2 miWSW (240°)4.6 mph
3:00 AM37.4 °F30.2 °F75 %29.98 in6.2 miSSW (210°)8.1 mph
3:30 AM37.4 °F28.4 °F70 %29.98 in6.2 miSSW (210°)6.9 mph
4:00 AM37.4 °F28.4 °F70 %29.98 in6.2 miSW (220°)6.9 mph
4:30 AM39.2 °F28.4 °F65 %29.98 in6.2 miSW (230°)9.2 mph
5:00 AM41.0 °F26.6 °F57 %29.98 inSSW (210°)9.2 mphClear
5:30 AM41.0 °F26.6 °F57 %29.98 inSW (220°)8.1 mphClear
6:00 AM41.0 °F28.4 °F61 %29.98 inSSW (210°)10.4 mphClear
6:30 AM41.0 °F28.4 °F61 %29.98 inSSW (200°)9.2 mphClear
7:00 AM41.0 °F28.4 °F61 %29.98 inSW (220°)10.4 mphClear
7:30 AM42.8 °F28.4 °F57 %29.95 in6.2 miSSW (210°)10.4 mphMostly Cloudy
8:00 AM44.6 °F30.2 °F57 %29.98 in6.2 miSW (230°)6.9 mphMostly Cloudy
8:00 AM44.0 °F30.0 °F46 %29.98 in31.0 miSW (230°)8.1 mphPartly Cloudy
9:00 AM44.6 °F35.6 °F71 %29.98 in5.6 miWSW (250°)15.0 mphRainLight Rain
10:00 AM46.4 °F35.6 °F66 %30.01 in5.6 miWSW (240°)13.8 mphMostly Cloudy
10:30 AM48.2 °F37.4 °F66 %30.01 in6.2 miWSW (250°)15.0 mphMostly Cloudy
11:00 AM50.0 °F37.4 °F62 %30.04 in6.2 miWSW (250°)15.0 mphMostly Cloudy
11:30 AM51.8 °F37.4 °F58 %30.04 in6.2 miWSW (240°)13.8 mphMostly Cloudy
12:00 PM51.8 °F39.2 °F62 %30.04 in6.2 miWSW (250°)16.1 mphMostly Cloudy
12:30 PM53.6 °F39.2 °F58 %30.04 in6.2 miWSW (240°)17.3 mphScattered Clouds
1:00 PM53.6 °F37.4 °F54 %30.04 in6.2 miWest (270°)17.3 mphScattered Clouds
1:30 PM55.4 °F33.8 °F44 %30.04 in6.2 miWest (260°)15.0 mphScattered Clouds
2:00 PM56.0 °F36.0 °F35 %30.07 in19.0 miWest (280°)16.1 mphPartly Cloudy
2:00 PM55.4 °F35.6 °F47 %30.06 in6.2 miWest (280°)17.3 mphScattered Clouds
2:30 PM57.2 °F32.0 °F38 %30.06 in6.2 miWest (270°)15.0 mphScattered Clouds
3:00 PM57.2 °F30.2 °F36 %30.06 inWest (280°)16.1 mphClear
3:30 PM57.2 °F30.2 °F36 %30.06 inWest (260°)16.1 mphClear
4:00 PM59.0 °F30.2 °F34 %30.06 inWest (270°)11.5 mphClear
4:30 PM57.2 °F32.0 °F38 %30.06 inNW (310°)12.7 mphClear
5:00 PM59.0 °F26.6 °F29 %30.06 inWest (280°)13.8 mphClear
5:30 PM59.0 °F28.4 °F31 %30.09 inWest (280°)10.4 mphClear
6:00 PM59.0 °F26.6 °F29 %30.09 inWest (280°)11.5 mphClear
6:30 PM57.2 °F26.6 °F31 %30.09 inWest (270°)11.5 mphClear
7:00 PM57.2 °F26.6 °F31 %30.09 inWNW (290°)10.4 mphClear
7:30 PM57.2 °F26.6 °F31 %30.09 inWest (280°)12.7 mphClear
8:00 PM55.4 °F26.6 °F33 %30.09 inWest (280°)11.5 mphClear
8:00 PM55.0 °F27.0 °F22 %30.12 in19.0 miWest (280°)12.7 mphClear
9:00 PM50.0 °F28.4 °F43 %30.12 inWNW (290°)10.4 mphClear
9:30 PM48.2 °F28.4 °F46 %30.12 inWest (260°)6.9 mphClear
10:00 PM48.2 °F30.2 °F50 %30.15 inWNW (300°)9.2 mphClear
10:30 PM46.4 °F30.2 °F53 %30.15 inWNW (300°)8.1 mphClear
11:00 PM44.6 °F32.0 °F61 %30.15 inWest (270°)4.6 mphClear
Hourly data recorded from LFQQ, located miles away from Lille, France







STORIES FROM OUR PARTNERS